TVF21ZC LFPO-LKPR

Flight info

Callsign TVF21ZC
Flight time 1h 23m
Altitude 39000
Route RANUX DCT VALEK DCT LIPNI DCT LIMGO DCT BOMBI DCT BOREP DCT TONSU Z35 ODOMO DCT LOMKI
Aircraft B738/M-SDE2E3FGHIRWXY/LB1

Departure

Time 2026-05-06 17:14
Airport Paris-Orly Airport (LFPO)

Arrival

Time 2026-05-06 18:37
Airport Václav Havel Airport Prague (LKPR)
Time Latitude Longitude Altitude Speed Heading
2026-05-06 16:40 48.72698 2.36662 290 ft 0 kts 22°
2026-05-06 16:58 48.72692 2.36658 296 ft 2 kts 22°
2026-05-06 16:59 48.72681 2.36652 292 ft 2 kts 22°
2026-05-06 16:59 48.72665 2.36642 295 ft 3 kts 22°
2026-05-06 16:59 48.72648 2.36631 293 ft 3 kts 18°
2026-05-06 16:59 48.72629 2.36629 291 ft 3 kts 346°
2026-05-06 17:00 48.72607 2.36632 292 ft 3 kts 21°
2026-05-06 17:00 48.72588 2.36612 291 ft 3 kts 43°
2026-05-06 17:00 48.72573 2.36586 293 ft 4 kts 63°
2026-05-06 17:00 48.72564 2.36550 295 ft 4 kts 74°
2026-05-06 17:01 48.72558 2.36513 295 ft 4 kts 77°
2026-05-06 17:01 48.72552 2.36480 295 ft 3 kts 74°
2026-05-06 17:01 48.72547 2.36455 295 ft 1 kts 74°
2026-05-06 17:01 48.72547 2.36454 295 ft 0 kts 74°
2026-05-06 17:03 48.72547 2.36456 289 ft 3 kts 74°
2026-05-06 17:04 48.72559 2.36533 291 ft 9 kts 90°
2026-05-06 17:04 48.72528 2.36610 289 ft 8 kts 163°
2026-05-06 17:04 48.72485 2.36561 291 ft 10 kts 248°
2026-05-06 17:04 48.72457 2.36418 291 ft 16 kts 255°
2026-05-06 17:05 48.72427 2.36253 293 ft 16 kts 255°
2026-05-06 17:05 48.72398 2.36093 292 ft 15 kts 254°
2026-05-06 17:05 48.72368 2.35940 292 ft 15 kts 253°
2026-05-06 17:05 48.72341 2.35794 292 ft 14 kts 255°
2026-05-06 17:06 48.72349 2.35658 291 ft 14 kts 316°
2026-05-06 17:06 48.72448 2.35602 293 ft 18 kts 343°
2026-05-06 17:06 48.72588 2.35545 292 ft 22 kts 345°
2026-05-06 17:06 48.72733 2.35484 293 ft 21 kts 344°
2026-05-06 17:07 48.72855 2.35432 289 ft 14 kts 344°
2026-05-06 17:07 48.72942 2.35372 290 ft 13 kts 348°
2026-05-06 17:07 48.73028 2.35397 292 ft 12 kts 18°
2026-05-06 17:07 48.73089 2.35427 281 ft 6 kts 18°
2026-05-06 17:08 48.73122 2.35444 304 ft 0 kts 18°
2026-05-06 17:09 48.73124 2.35445 305 ft 1 kts 19°
2026-05-06 17:09 48.73137 2.35452 303 ft 0 kts 20°
2026-05-06 17:10 48.73140 2.35453 302 ft 2 kts 20°
2026-05-06 17:10 48.73171 2.35471 305 ft 7 kts 19°
2026-05-06 17:10 48.73213 2.35475 302 ft 3 kts 350°
2026-05-06 17:10 48.73217 2.35473 302 ft 0 kts 346°
2026-05-06 17:11 48.73220 2.35472 302 ft 0 kts 345°
2026-05-06 17:11 48.73222 2.35471 302 ft 0 kts 345°
2026-05-06 17:11 48.73231 2.35465 305 ft 3 kts 334°
2026-05-06 17:11 48.73258 2.35431 303 ft 6 kts 310°
2026-05-06 17:12 48.73284 2.35382 303 ft 6 kts 307°
2026-05-06 17:12 48.73284 2.35328 303 ft 1 kts 241°
2026-05-06 17:12 48.73284 2.35327 303 ft 0 kts 241°
2026-05-06 17:13 48.73272 2.35295 302 ft 14 kts 241°
2026-05-06 17:13 48.73103 2.34814 301 ft 90 kts 242°
2026-05-06 17:13 48.72698 2.33665 306 ft 154 kts 242°
2026-05-06 17:14 48.72134 2.32065 692 ft 178 kts 246°
2026-05-06 17:14 48.71507 2.30418 1604 ft 186 kts 238°
2026-05-06 17:14 48.70734 2.28780 2401 ft 195 kts 240°
2026-05-06 17:14 48.69986 2.26958 2991 ft 211 kts 240°
2026-05-06 17:15 48.69167 2.24997 3349 ft 232 kts 239°
2026-05-06 17:15 48.68259 2.22874 3590 ft 256 kts 238°
2026-05-06 17:15 48.66960 2.20914 4035 ft 274 kts 210°
2026-05-06 17:15 48.65112 2.20145 4861 ft 280 kts 179°
2026-05-06 17:16 48.63273 2.20837 6109 ft 269 kts 149°
2026-05-06 17:16 48.61794 2.22443 7355 ft 259 kts 140°
2026-05-06 17:16 48.60342 2.24201 8006 ft 277 kts 140°
2026-05-06 17:16 48.58780 2.26038 8800 ft 288 kts 141°
2026-05-06 17:17 48.57169 2.27874 9677 ft 295 kts 142°
2026-05-06 17:17 48.55527 2.29740 9898 ft 290 kts 141°
2026-05-06 17:17 48.53928 2.31561 9890 ft 287 kts 142°
2026-05-06 17:17 48.52336 2.33379 9942 ft 289 kts 142°
2026-05-06 17:18 48.50738 2.35352 10200 ft 307 kts 131°
2026-05-06 17:18 48.49686 2.38197 10446 ft 327 kts 103°
2026-05-06 17:18 48.49573 2.41679 10847 ft 341 kts 85°
2026-05-06 17:18 48.49804 2.45302 11425 ft 350 kts 84°
2026-05-06 17:19 48.50080 2.48980 12123 ft 356 kts 84°
2026-05-06 17:19 48.50356 2.52714 12891 ft 360 kts 84°
2026-05-06 17:19 48.50623 2.56524 13798 ft 368 kts 85°
2026-05-06 17:19 48.50880 2.60391 14868 ft 370 kts 85°
2026-05-06 17:20 48.51127 2.64252 15938 ft 372 kts 85°
2026-05-06 17:20 48.51368 2.68118 16893 ft 377 kts 86°
2026-05-06 17:20 48.51615 2.72116 17830 ft 382 kts 86°
2026-05-06 17:20 48.52058 2.76091 18649 ft 387 kts 75°
2026-05-06 17:21 48.53034 2.79893 19480 ft 390 kts 65°
2026-05-06 17:21 48.54352 2.83488 20274 ft 393 kts 60°
2026-05-06 17:21 48.55765 2.87028 20949 ft 398 kts 59°
2026-05-06 17:21 48.57224 2.90605 21749 ft 400 kts 59°
2026-05-06 17:22 48.58683 2.94179 22517 ft 401 kts 59°
2026-05-06 17:22 48.60132 2.97749 23213 ft 405 kts 59°
2026-05-06 17:22 48.61604 3.01403 23839 ft 408 kts 60°
2026-05-06 17:22 48.63079 3.05088 24412 ft 411 kts 60°
2026-05-06 17:23 48.64561 3.08811 24995 ft 414 kts 60°
2026-05-06 17:23 48.66051 3.12564 25534 ft 417 kts 60°
2026-05-06 17:23 48.67547 3.16344 26048 ft 420 kts 60°
2026-05-06 17:23 48.69055 3.20159 26553 ft 423 kts 60°
2026-05-06 17:24 48.70571 3.24002 27037 ft 426 kts 61°
2026-05-06 17:24 48.72081 3.27835 27500 ft 430 kts 61°
2026-05-06 17:24 48.73617 3.31740 27958 ft 432 kts 61°
2026-05-06 17:24 48.75163 3.35674 28381 ft 436 kts 61°
2026-05-06 17:25 48.76721 3.39644 28795 ft 439 kts 61°
2026-05-06 17:25 48.78289 3.43646 29195 ft 442 kts 61°
2026-05-06 17:25 48.79863 3.47669 29590 ft 445 kts 61°
2026-05-06 17:25 48.81446 3.51723 29990 ft 447 kts 61°
2026-05-06 17:26 48.83013 3.55740 30318 ft 449 kts 61°
2026-05-06 17:26 48.84607 3.59834 30613 ft 452 kts 61°
2026-05-06 17:26 48.86207 3.63948 30918 ft 454 kts 61°
2026-05-06 17:26 48.87816 3.68092 31249 ft 455 kts 61°
2026-05-06 17:27 48.89422 3.72233 31714 ft 453 kts 61°
2026-05-06 17:27 48.91016 3.76351 32182 ft 451 kts 61°
2026-05-06 17:27 48.92605 3.80463 32578 ft 451 kts 61°
2026-05-06 17:27 48.94195 3.84585 32936 ft 451 kts 61°
2026-05-06 17:28 48.95782 3.88706 33287 ft 451 kts 61°
2026-05-06 17:28 48.97343 3.92763 33647 ft 450 kts 61°
2026-05-06 17:28 48.98941 3.96926 33989 ft 450 kts 62°
2026-05-06 17:28 49.00499 4.00989 34229 ft 451 kts 61°
2026-05-06 17:29 49.02086 4.05136 34422 ft 453 kts 62°
2026-05-06 17:29 49.03674 4.09293 34625 ft 455 kts 62°
2026-05-06 17:29 49.05263 4.13458 34899 ft 455 kts 61°
2026-05-06 17:29 49.06857 4.17641 35152 ft 456 kts 61°
2026-05-06 17:30 49.08453 4.21838 35371 ft 457 kts 61°
2026-05-06 17:30 49.10053 4.26049 35588 ft 459 kts 61°
2026-05-06 17:30 49.11631 4.30211 35827 ft 459 kts 61°
2026-05-06 17:30 49.13229 4.34430 36050 ft 460 kts 62°
2026-05-06 17:31 49.14709 4.38761 36236 ft 460 kts 67°
2026-05-06 17:31 49.16000 4.43306 36438 ft 461 kts 69°
2026-05-06 17:31 49.17192 4.47792 36656 ft 461 kts 70°
2026-05-06 17:31 49.18380 4.52358 36879 ft 462 kts 70°
2026-05-06 17:32 49.19569 4.56920 37069 ft 463 kts 69°
2026-05-06 17:32 49.20776 4.61502 37259 ft 464 kts 69°
2026-05-06 17:32 49.21991 4.66068 37471 ft 465 kts 69°
2026-05-06 17:32 49.23218 4.70654 37697 ft 464 kts 69°
2026-05-06 17:33 49.24439 4.75206 38143 ft 460 kts 69°
2026-05-06 17:33 49.25648 4.79711 38545 ft 456 kts 69°
2026-05-06 17:33 49.26853 4.84206 38751 ft 456 kts 69°
2026-05-06 17:33 49.28053 4.88697 38872 ft 457 kts 69°
2026-05-06 17:34 49.29260 4.93224 38872 ft 460 kts 69°
2026-05-06 17:34 49.31675 5.02313 38887 ft 467 kts 69°
2026-05-06 17:35 49.34132 5.11600 38875 ft 473 kts 69°
2026-05-06 17:35 49.36613 5.21014 38874 ft 476 kts 69°
2026-05-06 17:36 49.40338 5.35219 38857 ft 479 kts 69°
2026-05-06 17:36 49.42814 5.44707 38855 ft 478 kts 69°
2026-05-06 17:37 49.45274 5.54180 38852 ft 476 kts 69°
2026-05-06 17:37 49.47702 5.63564 38850 ft 475 kts 69°
2026-05-06 17:38 49.50131 5.72991 38847 ft 473 kts 70°
2026-05-06 17:38 49.52511 5.82404 38842 ft 471 kts 71°
2026-05-06 17:39 49.54780 5.91852 38848 ft 469 kts 70°
2026-05-06 17:39 49.57109 6.01236 38855 ft 468 kts 70°
2026-05-06 17:40 49.59430 6.10614 38862 ft 468 kts 70°
2026-05-06 17:40 49.61720 6.19952 38862 ft 468 kts 70°
2026-05-06 17:41 49.63982 6.29382 38860 ft 469 kts 73°
2026-05-06 17:41 49.65794 6.39072 38854 ft 469 kts 76°
2026-05-06 17:42 49.67442 6.48767 38843 ft 470 kts 77°
2026-05-06 17:42 49.69120 6.58551 38834 ft 472 kts 76°
2026-05-06 17:43 49.70540 6.66710 38822 ft 473 kts 76°
2026-05-06 17:43 49.72259 6.76557 38818 ft 475 kts 76°
2026-05-06 17:44 49.73979 6.86450 38823 ft 476 kts 76°
2026-05-06 17:44 49.75692 6.96361 38824 ft 477 kts 77°
2026-05-06 17:45 49.77386 7.06227 38818 ft 478 kts 77°
2026-05-06 17:45 49.79082 7.16161 38827 ft 477 kts 77°
2026-05-06 17:46 49.80770 7.26112 38830 ft 477 kts 77°
2026-05-06 17:46 49.82445 7.36034 38822 ft 476 kts 77°
2026-05-06 17:47 49.84114 7.45981 38823 ft 476 kts 77°
2026-05-06 17:47 49.85760 7.55851 38821 ft 476 kts 77°
2026-05-06 17:48 49.87410 7.65797 38815 ft 476 kts 77°
2026-05-06 17:48 49.89047 7.75730 38825 ft 475 kts 77°
2026-05-06 17:49 49.90676 7.85669 38827 ft 474 kts 77°
2026-05-06 17:49 49.92286 7.95549 38821 ft 474 kts 78°
2026-05-06 17:50 49.93891 8.05456 38814 ft 474 kts 78°
2026-05-06 17:50 49.95490 8.15388 38814 ft 475 kts 78°
2026-05-06 17:51 49.97085 8.25350 38810 ft 475 kts 78°
2026-05-06 17:51 49.98674 8.35337 38809 ft 475 kts 78°
2026-05-06 17:52 50.00237 8.45220 38803 ft 475 kts 78°
2026-05-06 17:52 50.01810 8.55227 38801 ft 475 kts 78°
2026-05-06 17:53 50.03373 8.65231 38810 ft 476 kts 78°
2026-05-06 17:53 50.04910 8.75124 38812 ft 476 kts 79°
2026-05-06 17:54 50.05582 8.85282 38792 ft 471 kts 96°
2026-05-06 17:54 50.05112 8.95478 38801 ft 470 kts 97°
2026-05-06 17:55 50.04597 9.05537 38804 ft 470 kts 97°
2026-05-06 17:55 50.04113 9.15696 38826 ft 471 kts 97°
2026-05-06 17:56 50.03650 9.25866 38798 ft 471 kts 97°
2026-05-06 17:56 50.03183 9.36060 38794 ft 472 kts 97°
2026-05-06 17:57 50.02707 9.46215 38791 ft 472 kts 97°
2026-05-06 17:57 50.02219 9.56392 38786 ft 471 kts 97°
2026-05-06 17:58 50.01723 9.66566 38784 ft 471 kts 97°
2026-05-06 17:58 50.01218 9.76730 38787 ft 471 kts 97°
2026-05-06 17:59 50.00707 9.86833 38782 ft 470 kts 97°
2026-05-06 17:59 50.00186 9.96955 38785 ft 470 kts 97°
2026-05-06 18:00 49.99656 10.07082 38783 ft 470 kts 97°
2026-05-06 18:00 49.99120 10.17149 38780 ft 470 kts 97°
2026-05-06 18:01 49.98572 10.27282 38779 ft 469 kts 98°
2026-05-06 18:01 49.98018 10.37362 38782 ft 469 kts 98°
2026-05-06 18:02 49.97455 10.47456 38779 ft 469 kts 98°
2026-05-06 18:02 49.97009 10.57595 38780 ft 471 kts 95°
2026-05-06 18:03 49.96892 10.67781 38781 ft 471 kts 94°
2026-05-06 18:03 49.96820 10.77967 38786 ft 471 kts 94°
2026-05-06 18:04 49.96708 10.88152 38781 ft 472 kts 94°
2026-05-06 18:04 49.96564 10.98304 38784 ft 472 kts 95°
2026-05-06 18:05 49.96407 11.08436 38295 ft 467 kts 95°
2026-05-06 18:05 49.96325 11.13504 37567 ft 468 kts 95°
2026-05-06 18:05 49.96241 11.18563 36911 ft 468 kts 96°
2026-05-06 18:06 49.96154 11.23620 36310 ft 468 kts 96°
2026-05-06 18:06 49.96066 11.28686 35728 ft 468 kts 96°
2026-05-06 18:06 49.95977 11.33725 35163 ft 467 kts 96°
2026-05-06 18:06 49.95886 11.38715 34617 ft 467 kts 97°
2026-05-06 18:07 49.95792 11.43744 34070 ft 466 kts 97°
2026-05-06 18:07 49.95696 11.48790 33485 ft 465 kts 97°
2026-05-06 18:07 49.95599 11.53791 32857 ft 463 kts 97°
2026-05-06 18:07 49.95500 11.58764 32270 ft 459 kts 97°
2026-05-06 18:08 49.95400 11.63704 31699 ft 456 kts 97°
2026-05-06 18:08 49.95298 11.68617 31123 ft 454 kts 97°
2026-05-06 18:08 49.95192 11.73540 30585 ft 457 kts 97°
2026-05-06 18:08 49.95083 11.78498 30042 ft 461 kts 97°
2026-05-06 18:09 49.94972 11.83426 29463 ft 463 kts 96°
2026-05-06 18:09 49.94860 11.88426 28837 ft 463 kts 96°
2026-05-06 18:09 49.94744 11.93490 28216 ft 462 kts 96°
2026-05-06 18:09 49.94630 11.98406 27630 ft 462 kts 96°
2026-05-06 18:10 49.94512 12.03386 27046 ft 461 kts 96°
2026-05-06 18:10 49.94392 12.08366 26470 ft 461 kts 96°
2026-05-06 18:10 49.94270 12.13333 25910 ft 462 kts 95°
2026-05-06 18:10 49.94143 12.18347 25382 ft 465 kts 95°
2026-05-06 18:11 49.94019 12.23306 25053 ft 454 kts 95°
2026-05-06 18:11 49.93895 12.28181 24795 ft 451 kts 95°
2026-05-06 18:11 49.93766 12.33051 24756 ft 451 kts 96°
2026-05-06 18:11 49.93637 12.37908 24743 ft 449 kts 96°
2026-05-06 18:12 49.93510 12.42756 24737 ft 450 kts 96°
2026-05-06 18:12 49.93388 12.47555 24731 ft 450 kts 96°
2026-05-06 18:12 49.93265 12.52467 24733 ft 450 kts 96°
2026-05-06 18:12 49.93149 12.57251 24734 ft 450 kts 95°
2026-05-06 18:13 49.93033 12.62082 24726 ft 441 kts 95°
2026-05-06 18:13 49.92930 12.66744 24512 ft 425 kts 95°
2026-05-06 18:13 49.92835 12.71250 24158 ft 409 kts 95°
2026-05-06 18:13 49.92750 12.75584 23819 ft 395 kts 95°
2026-05-06 18:14 49.92672 12.79776 23484 ft 382 kts 95°
2026-05-06 18:14 49.92600 12.83836 23114 ft 371 kts 96°
2026-05-06 18:14 49.92531 12.87795 22718 ft 363 kts 96°
2026-05-06 18:14 49.92465 12.91662 22337 ft 355 kts 96°
2026-05-06 18:15 49.92399 12.95500 21969 ft 357 kts 96°
2026-05-06 18:15 49.92328 12.99379 21613 ft 361 kts 96°
2026-05-06 18:15 49.92252 13.03288 21253 ft 363 kts 96°
2026-05-06 18:15 49.92172 13.07219 20832 ft 365 kts 96°
2026-05-06 18:16 49.92089 13.11170 20408 ft 366 kts 96°
2026-05-06 18:16 49.92001 13.15117 19980 ft 365 kts 96°
2026-05-06 18:16 49.91912 13.19045 19555 ft 364 kts 96°
2026-05-06 18:16 49.91821 13.22959 19142 ft 362 kts 96°
2026-05-06 18:17 49.91729 13.26811 18735 ft 361 kts 96°
2026-05-06 18:17 49.91632 13.30699 18331 ft 360 kts 96°
2026-05-06 18:17 49.91532 13.34572 17918 ft 359 kts 96°
2026-05-06 18:17 49.91429 13.38433 17463 ft 357 kts 96°
2026-05-06 18:18 49.91324 13.42280 17005 ft 356 kts 96°
2026-05-06 18:18 49.91216 13.46098 16762 ft 349 kts 95°
2026-05-06 18:18 49.91116 13.49782 16733 ft 336 kts 95°
2026-05-06 18:18 49.91023 13.53383 16727 ft 333 kts 96°
2026-05-06 18:19 49.90931 13.57051 16765 ft 352 kts 94°
2026-05-06 18:19 49.91220 13.60862 16712 ft 354 kts 73°
2026-05-06 18:19 49.92339 13.64166 16728 ft 342 kts 53°
2026-05-06 18:19 49.93786 13.67039 16736 ft 333 kts 53°
2026-05-06 18:20 49.95160 13.69851 16718 ft 320 kts 54°
2026-05-06 18:20 49.95456 13.70473 16719 ft 317 kts 55°
2026-05-06 18:20 49.96341 13.72374 16716 ft 309 kts 56°
2026-05-06 18:20 49.97431 13.74775 16727 ft 302 kts 56°
2026-05-06 18:21 49.98618 13.77422 16721 ft 296 kts 56°
2026-05-06 18:21 49.99788 13.80045 16743 ft 294 kts 56°
2026-05-06 18:21 50.00931 13.82696 16752 ft 296 kts 59°
2026-05-06 18:21 50.02033 13.85417 16750 ft 298 kts 59°
2026-05-06 18:22 50.03120 13.88123 16759 ft 299 kts 59°
2026-05-06 18:22 50.04228 13.90866 16753 ft 300 kts 59°
2026-05-06 18:22 50.05098 13.93012 16724 ft 300 kts 59°
2026-05-06 18:22 50.06179 13.95791 16523 ft 301 kts 63°
2026-05-06 18:23 50.07169 13.98695 16161 ft 304 kts 64°
2026-05-06 18:23 50.08129 14.01595 15733 ft 301 kts 64°
2026-05-06 18:23 50.09084 14.04508 15227 ft 302 kts 64°
2026-05-06 18:23 50.10033 14.07428 14748 ft 302 kts 64°
2026-05-06 18:24 50.10978 14.10357 14267 ft 303 kts 65°
2026-05-06 18:24 50.11909 14.13260 13791 ft 303 kts 65°
2026-05-06 18:24 50.12842 14.16187 13358 ft 300 kts 65°
2026-05-06 18:24 50.13765 14.19095 12912 ft 298 kts 65°
2026-05-06 18:25 50.14667 14.21937 12753 ft 285 kts 65°
2026-05-06 18:25 50.15531 14.24650 12479 ft 282 kts 65°
2026-05-06 18:25 50.16420 14.27437 11877 ft 289 kts 63°
2026-05-06 18:25 50.17568 14.30034 11292 ft 294 kts 47°
2026-05-06 18:26 50.19114 14.32082 10879 ft 290 kts 31°
2026-05-06 18:26 50.20922 14.33420 10483 ft 284 kts 14°
2026-05-06 18:26 50.22706 14.33948 10122 ft 278 kts 359°
2026-05-06 18:26 50.24613 14.33726 9740 ft 271 kts 343°
2026-05-06 18:27 50.26350 14.32731 9327 ft 263 kts 327°
2026-05-06 18:27 50.27794 14.31060 8915 ft 256 kts 310°
2026-05-06 18:27 50.28896 14.28980 8790 ft 246 kts 303°
2026-05-06 18:27 50.29900 14.26886 8741 ft 235 kts 302°
2026-05-06 18:28 50.30861 14.24865 8736 ft 229 kts 302°
2026-05-06 18:28 50.31816 14.22838 8476 ft 236 kts 301°
2026-05-06 18:28 50.32768 14.20712 8152 ft 237 kts 297°
2026-05-06 18:28 50.33313 14.18355 7771 ft 229 kts 272°
2026-05-06 18:29 50.33163 14.15955 7414 ft 218 kts 250°
2026-05-06 18:29 50.32620 14.13771 7020 ft 214 kts 245°
2026-05-06 18:29 50.32038 14.11630 6790 ft 215 kts 245°
2026-05-06 18:29 50.31439 14.09456 6770 ft 219 kts 245°
2026-05-06 18:30 50.30840 14.07288 6751 ft 214 kts 245°
2026-05-06 18:30 50.30449 14.05875 6692 ft 214 kts 245°
2026-05-06 18:30 50.29842 14.03689 6321 ft 222 kts 245°
2026-05-06 18:30 50.29018 14.00740 5790 ft 224 kts 244°
2026-05-06 18:31 50.28126 13.98770 5370 ft 223 kts 220°
2026-05-06 18:31 50.27246 13.97885 5099 ft 223 kts 203°
2026-05-06 18:31 50.25746 13.97520 4689 ft 225 kts 171°
2026-05-06 18:31 50.24341 13.98472 4465 ft 217 kts 146°
2026-05-06 18:32 50.23178 13.99922 4225 ft 210 kts 141°
2026-05-06 18:32 50.22098 14.01372 4060 ft 201 kts 140°
2026-05-06 18:32 50.21170 14.02906 3998 ft 190 kts 125°
2026-05-06 18:32 50.20430 14.04601 3999 ft 189 kts 128°
2026-05-06 18:33 50.19644 14.06228 3983 ft 190 kts 128°
2026-05-06 18:33 50.18849 14.07863 3796 ft 184 kts 128°
2026-05-06 18:33 50.18086 14.09439 3561 ft 178 kts 128°
2026-05-06 18:33 50.17354 14.10953 3325 ft 172 kts 127°
2026-05-06 18:34 50.16650 14.12408 3119 ft 165 kts 127°
2026-05-06 18:34 50.15968 14.13818 2927 ft 157 kts 127°
2026-05-06 18:34 50.15334 14.15131 2687 ft 147 kts 126°
2026-05-06 18:34 50.14727 14.16388 2495 ft 144 kts 126°
2026-05-06 18:35 50.14121 14.17643 2322 ft 145 kts 125°
2026-05-06 18:35 50.13533 14.18870 2116 ft 146 kts 125°
2026-05-06 18:35 50.12922 14.20138 1888 ft 145 kts 126°
2026-05-06 18:35 50.12317 14.21382 1686 ft 143 kts 125°
2026-05-06 18:36 50.11727 14.22610 1518 ft 140 kts 124°
2026-05-06 18:36 50.11163 14.23787 1311 ft 143 kts 126°
2026-05-06 18:36 50.10782 14.24573 1196 ft 140 kts 125°
2026-05-06 18:36 50.10425 14.25323 1171 ft 126 kts 126°
2026-05-06 18:37 50.10114 14.25955 1190 ft 70 kts 126°
2026-05-06 18:37 50.09899 14.26404 1199 ft 31 kts 126°
2026-05-06 18:37 50.09874 14.26624 1206 ft 16 kts 81°
2026-05-06 18:37 50.09889 14.26787 1205 ft 15 kts 82°
2026-05-06 18:38 50.09899 14.26902 1205 ft 9 kts 83°
2026-05-06 18:38 50.09907 14.26995 1204 ft 9 kts 80°
2026-05-06 18:38 50.09915 14.27078 1175 ft 8 kts 81°
2026-05-06 18:38 50.09917 14.27092 1174 ft 0 kts 82°
2026-05-06 18:40 50.09931 14.27137 1200 ft 5 kts 38°
2026-05-06 18:40 50.09940 14.27136 1199 ft 1 kts 332°
2026-05-06 18:40 50.09975 14.27063 1197 ft 21 kts 307°
2026-05-06 18:40 50.10071 14.26862 1188 ft 25 kts 307°
2026-05-06 18:41 50.10183 14.26630 1176 ft 26 kts 309°
2026-05-06 18:41 50.10289 14.26412 1174 ft 24 kts 307°
2026-05-06 18:41 50.10386 14.26212 1175 ft 22 kts 307°
2026-05-06 18:41 50.10429 14.26123 1174 ft 0 kts 307°
2026-05-06 18:43 50.10429 14.26122 1174 ft 1 kts 307°
2026-05-06 18:43 50.10487 14.26001 1170 ft 19 kts 306°
2026-05-06 18:43 50.10563 14.25834 1172 ft 16 kts 303°
2026-05-06 18:43 50.10624 14.25812 1173 ft 9 kts 30°
2026-05-06 18:44 50.10720 14.25915 1170 ft 19 kts 34°
2026-05-06 18:44 50.10779 14.26000 1172 ft 6 kts 86°
2026-05-06 18:44 50.10757 14.26055 1171 ft 7 kts 124°
2026-05-06 18:44 50.10749 14.26075 1172 ft 0 kts 124°